Location: ?????
(55.8833°N, 37.6500°E)
Time: 10:39:06
(UTC+00:00)

Nadezhda 4 Rocket - Pass Details

Date: 27 February 2020
Orbit: 950 x 991 km, 82.9° (Epoch: 29 March)

Event Time Altitude Azimuth Distance (km) Brightness Sun altitude
Rises 16:09:31 0° 348° (NNW) 3,696 7.2 -10.8°
Reaches altitude 10° 16:12:05 10° 353° (N) 2,750 6.5 -11.1°
Maximum altitude 16:18:20 60° 73° (ENE) 1,123 4.1 -12.0°
Drops below altitude 10° 16:24:35 10° 153° (SSE) 2,750 6.1 -12.9°
Sets 16:27:09 0° 157° (SSE) 3,696 6.8 -13.2°
